Time,TemperatureF,DewpointF,PressureIn,WindDirection,WindDirectionDegrees,WindSpeedMPH,WindSpeedGustMPH,Humidity,HourlyPrecipIn,Conditions,Clouds,dailyrainin,SoftwareType,DateUTC
2013-01-13 00:03:00,20.2,16.4,29.93,WNW,282,2.9,9.7,85,0.00,-SN,,0.00,WeatherDisplay:10.37,2013-01-13 06:03:00,
2013-01-13 00:08:00,20.1,16.0,29.93,WNW,291,2.5,7.6,84,0.00,-SN,,0.00,WeatherDisplay:10.37,2013-01-13 06:08:00,
2013-01-13 00:13:00,19.7,15.6,29.91,NW,309,6.4,10.4,84,0.00,-SN,,0.00,WeatherDisplay:10.37,2013-01-13 06:13:00,
2013-01-13 00:18:00,20.1,16.0,29.91,NW,304,4.7,10.4,84,0.00,-SN,,0.00,WeatherDisplay:10.37,2013-01-13 06:18:00,
2013-01-13 00:23:00,20.0,15.9,29.92,WNW,301,5.5,8.1,84,0.00,-SN,,0.00,WeatherDisplay:10.37,2013-01-13 06:23:00,
2013-01-13 00:28:00,20.0,15.9,29.90,NW,315,4.1,9.4,84,0.00,-SN,,0.00,WeatherDisplay:10.37,2013-01-13 06:28:00,
2013-01-13 00:33:00,19.9,15.6,29.92,WNW,298,5.6,10.6,83,0.00,-SN,,0.00,WeatherDisplay:10.37,2013-01-13 06:33:00,
2013-01-13 00:38:00,19.8,15.5,29.91,NE,37,4.8,9.2,83,0.00,-SN,,0.00,WeatherDisplay:10.37,2013-01-13 06:38:00,
2013-01-13 00:43:00,19.6,15.3,29.91,West,265,4.0,5.8,83,0.00,-SN,,0.00,WeatherDisplay:10.37,2013-01-13 06:43:00,
2013-01-13 00:48:00,19.4,15.1,29.91,NW,305,3.9,8.1,83,0.00,-SN,,0.00,WeatherDisplay:10.37,2013-01-13 06:48:00,
2013-01-13 00:53:00,19.7,15.4,29.90,WSW,258,3.5,8.1,83,0.00,-SN,,0.00,WeatherDisplay:10.37,2013-01-13 06:53:00,
2013-01-13 00:58:00,19.3,15.0,29.91,NNE,23,1.4,8.1,83,0.00,-SN,,0.00,WeatherDisplay:10.37,2013-01-13 06:58:00,
2013-01-13 01:03:00,19.4,15.1,29.90,NW,312,4.1,6.9,83,0.00,-SN,,0.00,WeatherDisplay:10.37,2013-01-13 07:03:00,
2013-01-13 01:08:00,19.2,15.2,29.90,North,4,5.5,9.2,84,0.00,-SN,,0.00,WeatherDisplay:10.37,2013-01-13 07:08:00,
2013-01-13 01:13:00,19.4,15.1,29.91,NW,318,5.6,11.5,83,0.00,-SN,,0.00,WeatherDisplay:10.37,2013-01-13 07:13:00,
2013-01-13 01:18:00,19.5,15.5,29.90,NW,305,3.5,4.6,84,0.00,-SN,,0.00,WeatherDisplay:10.37,2013-01-13 07:18:00,
2013-01-13 01:23:00,19.3,15.0,29.91,NW,323,4.2,11.5,83,0.00,-SN,,0.00,WeatherDisplay:10.37,2013-01-13 07:23:00,
2013-01-13 01:28:00,19.5,15.5,29.89,NW,312,0.4,0.0,84,0.00,-SN,,0.00,WeatherDisplay:10.37,2013-01-13 07:28:00,
2013-01-13 01:33:00,19.3,15.3,29.88,North,357,2.9,11.5,84,0.00,-SN,,0.00,WeatherDisplay:10.37,2013-01-13 07:33:00,
2013-01-13 01:38:00,19.4,15.4,29.89,NW,320,6.2,9.2,84,0.00,-SN,,0.00,WeatherDisplay:10.37,2013-01-13 07:38:00,
2013-01-13 01:43:00,19.3,15.3,29.89,NNW,344,4.1,7.0,84,0.00,-SN,,0.00,WeatherDisplay:10.37,2013-01-13 07:43:00,
2013-01-13 01:48:00,19.3,15.3,29.88,NNW,336,5.4,6.9,84,0.00,-SN,,0.00,WeatherDisplay:10.37,2013-01-13 07:48:00,
2013-01-13 01:53:00,19.3,15.5,29.87,North,356,1.6,6.9,85,0.00,-SN,,0.00,WeatherDisplay:10.37,2013-01-13 07:53:00,
2013-01-13 01:58:00,19.0,15.2,29.88,West,265,5.2,8.1,85,0.00,-SN,,0.00,WeatherDisplay:10.37,2013-01-13 07:58:00,
2013-01-13 02:03:00,18.9,15.1,29.91,WNW,298,4.8,6.9,85,0.00,-SN,,0.00,WeatherDisplay:10.37,2013-01-13 08:03:00,
2013-01-13 02:08:00,19.1,15.3,29.92,NW,319,0.5,5.8,85,0.00,-SN,,0.00,WeatherDisplay:10.37,2013-01-13 08:08:00,
2013-01-13 02:13:00,19.1,15.3,29.89,North,349,0.2,3.5,85,0.00,-SN,,0.00,WeatherDisplay:10.37,2013-01-13 08:13:00,
2013-01-13 02:18:00,19.3,15.5,29.90,NNW,329,3.6,4.6,85,0.00,-SN,,0.00,WeatherDisplay:10.37,2013-01-13 08:18:00,
2013-01-13 02:23:00,19.0,15.2,29.90,NNW,347,6.3,8.1,85,0.00,-SN,,0.00,WeatherDisplay:10.37,2013-01-13 08:23:00,
2013-01-13 02:28:00,19.2,15.7,29.90,NW,325,3.3,9.0,86,0.00,-SN,,0.00,WeatherDisplay:10.37,2013-01-13 08:28:00,
2013-01-13 02:33:00,19.3,15.8,29.90,WNW,282,2.1,5.8,86,0.00,-SN,,0.00,WeatherDisplay:10.37,2013-01-13 08:33:00,
2013-01-13 02:38:00,19.2,15.7,29.91,NW,320,3.8,8.1,86,0.00,-SN,,0.00,WeatherDisplay:10.37,2013-01-13 08:38:00,
2013-01-13 02:43:00,19.1,15.6,29.91,NW,323,5.2,8.1,86,0.00,-SN,,0.00,WeatherDisplay:10.37,2013-01-13 08:43:00,
2013-01-13 02:48:00,19.3,15.8,29.91,NNW,337,0.0,3.5,86,0.00,-SN,,0.00,WeatherDisplay:10.37,2013-01-13 08:48:00,
2013-01-13 02:53:00,18.9,15.4,29.91,NW,323,3.5,8.3,86,0.00,-SN,,0.00,WeatherDisplay:10.37,2013-01-13 08:53:00,
2013-01-13 02:58:00,19.0,15.5,29.91,NW,322,3.3,6.5,86,0.00,-SN,,0.00,WeatherDisplay:10.37,2013-01-13 08:58:00,
2013-01-13 03:03:00,18.7,14.7,29.92,WNW,295,5.4,10.4,84,0.00,-SN,,0.00,WeatherDisplay:10.37,2013-01-13 09:03:00,
2013-01-13 03:08:00,18.4,14.6,29.93,NW,312,3.6,5.8,85,0.00,-SN,,0.00,WeatherDisplay:10.37,2013-01-13 09:08:00,
2013-01-13 03:13:00,18.1,14.1,29.93,WNW,296,6.7,8.1,84,0.00,-SN,,0.00,WeatherDisplay:10.37,2013-01-13 09:13:00,
2013-01-13 03:18:00,18.3,14.3,29.93,NNW,342,4.7,8.1,84,0.00,-SN,,0.00,WeatherDisplay:10.37,2013-01-13 09:18:00,
2013-01-13 03:23:00,18.2,14.2,29.93,WNW,288,3.4,9.2,84,0.00,-SN,,0.00,WeatherDisplay:10.37,2013-01-13 09:23:00,
2013-01-13 03:28:00,18.5,14.7,29.93,NW,308,1.3,3.5,85,0.00,-SN,,0.00,WeatherDisplay:10.37,2013-01-13 09:28:00,
2013-01-13 03:33:00,18.3,14.8,29.92,WNW,301,4.2,9.2,86,0.00,-SN,,0.00,WeatherDisplay:10.37,2013-01-13 09:33:00,
2013-01-13 03:38:00,18.3,14.8,29.92,North,6,1.4,5.8,86,0.00,-SN,,0.00,WeatherDisplay:10.37,2013-01-13 09:38:00,
2013-01-13 03:43:00,18.2,14.4,29.92,West,275,4.6,6.9,85,0.00,-SN,,0.00,WeatherDisplay:10.37,2013-01-13 09:43:00,
2013-01-13 03:48:00,17.8,14.3,29.91,NNW,339,3.8,6.9,86,0.00,-SN,,0.00,WeatherDisplay:10.37,2013-01-13 09:48:00,
2013-01-13 03:53:00,18.0,14.8,29.92,WNW,285,2.9,4.6,87,0.00,-SN,,0.00,WeatherDisplay:10.37,2013-01-13 09:53:00,
2013-01-13 03:58:00,17.8,14.3,29.90,North,7,0.7,6.9,86,0.00,-SN,,0.00,WeatherDisplay:10.37,2013-01-13 09:58:00,
2013-01-13 04:03:00,17.9,14.4,29.88,NNW,328,4.7,10.1,86,0.00,OVC,,0.00,WeatherDisplay:10.37,2013-01-13 10:03:00,
2013-01-13 04:08:00,17.6,14.1,29.88,NW,315,4.5,9.2,86,0.00,OVC,,0.00,WeatherDisplay:10.37,2013-01-13 10:08:00,
2013-01-13 04:13:00,17.6,14.1,29.89,North,7,5.6,9.2,86,0.00,OVC,,0.00,WeatherDisplay:10.37,2013-01-13 10:13:00,
2013-01-13 04:18:00,17.3,13.8,29.92,NNW,343,5.3,6.9,86,0.00,OVC,,0.00,WeatherDisplay:10.37,2013-01-13 10:18:00,
2013-01-13 04:23:00,17.4,13.9,29.92,SW,232,1.7,2.8,86,0.00,OVC,,0.00,WeatherDisplay:10.37,2013-01-13 10:23:00,
2013-01-13 04:28:00,17.6,14.1,29.90,NNE,25,0.5,3.5,86,0.00,OVC,,0.00,WeatherDisplay:10.37,2013-01-13 10:28:00,
2013-01-13 04:33:00,17.4,13.9,29.90,WNW,298,4.4,6.9,86,0.00,OVC,,0.00,WeatherDisplay:10.37,2013-01-13 10:33:00,
2013-01-13 04:38:00,17.2,13.7,29.90,North,1,5.5,8.1,86,0.00,OVC,,0.00,WeatherDisplay:10.37,2013-01-13 10:38:00,
2013-01-13 04:43:00,17.0,13.5,29.91,NW,311,3.6,9.1,86,0.00,OVC,,0.00,WeatherDisplay:10.37,2013-01-13 10:43:00,
2013-01-13 04:48:00,16.8,13.1,29.91,NW,312,6.5,8.1,85,0.00,OVC,,0.00,WeatherDisplay:10.37,2013-01-13 10:48:00,
2013-01-13 04:53:00,16.7,13.0,29.91,West,272,4.4,8.0,85,0.00,OVC,,0.00,WeatherDisplay:10.37,2013-01-13 10:53:00,
2013-01-13 04:58:00,16.6,12.9,29.93,WNW,284,3.2,4.6,85,0.00,OVC,,0.00,WeatherDisplay:10.37,2013-01-13 10:58:00,
2013-01-13 05:03:00,16.6,12.9,29.92,West,270,4.2,6.9,85,0.00,OVC,,0.00,WeatherDisplay:10.37,2013-01-13 11:03:00,
2013-01-13 05:08:00,16.4,12.7,29.93,WNW,285,3.4,4.6,85,0.00,OVC,,0.00,WeatherDisplay:10.37,2013-01-13 11:08:00,
2013-01-13 05:13:00,16.5,12.8,29.94,NW,309,3.1,5.8,85,0.00,OVC,,0.00,WeatherDisplay:10.37,2013-01-13 11:13:00,
2013-01-13 05:18:00,16.4,12.4,29.95,North,360,3.7,6.9,84,0.00,OVC,,0.00,WeatherDisplay:10.37,2013-01-13 11:18:00,
2013-01-13 05:23:00,16.4,12.7,29.96,WNW,285,2.7,3.7,85,0.00,OVC,,0.00,WeatherDisplay:10.37,2013-01-13 11:23:00,
2013-01-13 05:28:00,16.1,12.4,29.96,ENE,62,4.2,6.9,85,0.00,OVC,,0.00,WeatherDisplay:10.37,2013-01-13 11:28:00,
2013-01-13 05:33:00,15.9,12.5,29.96,WNW,294,4.4,5.8,86,0.00,OVC,,0.00,WeatherDisplay:10.37,2013-01-13 11:33:00,
2013-01-13 05:38:00,15.9,12.2,29.96,West,264,3.3,8.1,85,0.00,OVC,,0.00,WeatherDisplay:10.37,2013-01-13 11:38:00,
2013-01-13 05:43:00,15.9,12.2,29.94,NNW,339,1.9,5.8,85,0.00,OVC,,0.00,WeatherDisplay:10.37,2013-01-13 11:43:00,
2013-01-13 05:48:00,15.9,12.5,29.95,WNW,284,2.4,6.9,86,0.00,OVC,,0.00,WeatherDisplay:10.37,2013-01-13 11:48:00,
2013-01-13 05:53:00,15.7,12.3,29.96,NW,306,4.0,5.8,86,0.00,OVC,,0.00,WeatherDisplay:10.37,2013-01-13 11:53:00,
2013-01-13 05:58:00,15.4,12.0,29.96,West,264,4.9,6.9,86,0.00,OVC,,0.00,WeatherDisplay:10.37,2013-01-13 11:58:00,
2013-01-13 06:03:00,15.7,12.3,29.96,WNW,298,0.0,1.1,86,0.00,OVC,,0.00,WeatherDisplay:10.37,2013-01-13 12:03:00,
2013-01-13 06:08:00,15.3,12.1,29.96,WNW,284,5.1,6.9,87,0.00,OVC,,0.00,WeatherDisplay:10.37,2013-01-13 12:08:00,
2013-01-13 06:13:00,15.2,12.0,29.96,WNW,284,5.0,8.1,87,0.00,OVC,,0.00,WeatherDisplay:10.37,2013-01-13 12:13:00,
2013-01-13 06:18:00,14.8,11.4,29.96,NW,312,6.3,8.1,86,0.00,OVC,,0.00,WeatherDisplay:10.37,2013-01-13 12:18:00,
2013-01-13 06:23:00,15.2,12.0,29.95,West,270,0.9,4.6,87,0.00,OVC,,0.00,WeatherDisplay:10.37,2013-01-13 12:23:00,
2013-01-13 06:28:00,15.3,12.1,29.95,WNW,285,2.9,6.9,87,0.00,OVC,,0.00,WeatherDisplay:10.37,2013-01-13 12:28:00,
2013-01-13 06:33:00,15.2,12.0,29.95,SW,234,3.4,4.6,87,0.00,OVC,,0.00,WeatherDisplay:10.37,2013-01-13 12:33:00,
2013-01-13 06:38:00,15.1,12.2,29.96,NW,323,1.6,4.7,88,0.00,OVC,,0.00,WeatherDisplay:10.37,2013-01-13 12:38:00,
2013-01-13 06:43:00,15.3,12.1,29.95,West,260,1.6,2.3,87,0.00,OVC,,0.00,WeatherDisplay:10.37,2013-01-13 12:43:00,
2013-01-13 06:48:00,15.2,12.3,29.95,NW,322,0.4,5.7,88,0.00,OVC,,0.00,WeatherDisplay:10.37,2013-01-13 12:48:00,
2013-01-13 06:53:00,15.0,11.8,29.96,WNW,292,1.7,4.6,87,0.00,OVC,,0.00,WeatherDisplay:10.37,2013-01-13 12:53:00,
2013-01-13 06:58:00,15.1,11.9,29.96,WNW,285,3.1,5.8,87,0.00,OVC,,0.00,WeatherDisplay:10.37,2013-01-13 12:58:00,
2013-01-13 07:03:00,15.0,11.8,29.95,NW,306,3.2,5.8,87,0.00,OVC,,0.00,WeatherDisplay:10.37,2013-01-13 13:03:00,
2013-01-13 07:08:00,14.9,11.7,29.95,WNW,289,5.5,6.9,87,0.00,OVC,,0.00,WeatherDisplay:10.37,2013-01-13 13:08:00,
2013-01-13 07:13:00,14.7,11.5,29.96,SW,215,3.9,5.8,87,0.00,OVC,,0.00,WeatherDisplay:10.37,2013-01-13 13:13:00,
2013-01-13 07:18:00,14.5,11.3,29.96,WSW,247,4.5,10.4,87,0.00,OVC,,0.00,WeatherDisplay:10.37,2013-01-13 13:18:00,
2013-01-13 07:23:00,14.8,11.6,29.97,WNW,292,3.9,5.8,87,0.00,OVC,,0.00,WeatherDisplay:10.37,2013-01-13 13:23:00,
2013-01-13 07:28:00,14.4,11.2,29.97,WNW,287,2.3,6.9,87,0.00,OVC,,0.00,WeatherDisplay:10.37,2013-01-13 13:28:00,
2013-01-13 07:33:00,14.3,10.9,29.97,WNW,301,7.7,10.4,86,0.00,OVC,,0.00,WeatherDisplay:10.37,2013-01-13 13:33:00,
2013-01-13 07:38:00,14.3,10.9,29.97,NW,304,6.7,9.0,86,0.00,OVC,,0.00,WeatherDisplay:10.37,2013-01-13 13:38:00,
2013-01-13 07:43:00,14.3,10.9,29.98,NW,305,4.8,6.9,86,0.00,OVC,,0.00,WeatherDisplay:10.37,2013-01-13 13:43:00,
2013-01-13 07:48:00,14.4,11.0,29.99,NW,305,4.6,6.2,86,0.00,OVC,,0.00,WeatherDisplay:10.37,2013-01-13 13:48:00,
2013-01-13 07:53:00,14.3,11.1,30.00,WNW,289,4.1,6.9,87,0.00,OVC,,0.00,WeatherDisplay:10.37,2013-01-13 13:53:00,
2013-01-13 07:58:00,14.6,11.4,30.00,WNW,284,4.0,6.9,87,0.00,OVC,,0.00,WeatherDisplay:10.37,2013-01-13 13:58:00,
2013-01-13 08:03:00,14.5,11.1,30.00,West,268,3.3,5.8,86,0.00,OVC,,0.00,WeatherDisplay:10.37,2013-01-13 14:03:00,
2013-01-13 08:08:00,14.3,10.9,30.00,NW,325,4.3,6.9,86,0.00,OVC,,0.00,WeatherDisplay:10.37,2013-01-13 14:08:00,
2013-01-13 08:13:00,14.4,11.0,30.00,WNW,285,5.1,9.2,86,0.00,OVC,,0.00,WeatherDisplay:10.37,2013-01-13 14:13:00,
2013-01-13 08:18:00,14.3,10.9,30.00,NW,313,5.1,8.8,86,0.00,OVC,,0.00,WeatherDisplay:10.37,2013-01-13 14:18:00,
2013-01-13 08:23:00,14.4,10.7,30.00,West,274,2.5,5.8,85,0.00,OVC,,0.00,WeatherDisplay:10.37,2013-01-13 14:23:00,
2013-01-13 08:28:00,14.1,10.4,30.00,West,265,6.3,11.5,85,0.00,OVC,,0.00,WeatherDisplay:10.37,2013-01-13 14:28:00,
2013-01-13 08:33:00,14.0,10.3,30.00,WNW,289,9.0,9.8,85,0.00,OVC,,0.00,WeatherDisplay:10.37,2013-01-13 14:33:00,
2013-01-13 08:38:00,14.0,10.6,30.00,WNW,301,4.7,8.1,86,0.00,OVC,,0.00,WeatherDisplay:10.37,2013-01-13 14:38:00,
2013-01-13 08:43:00,14.2,10.5,30.01,WNW,288,4.4,10.4,85,0.00,OVC,,0.00,WeatherDisplay:10.37,2013-01-13 14:43:00,
2013-01-13 08:48:00,13.8,10.1,30.00,WNW,287,8.0,11.5,85,0.00,OVC,,0.00,WeatherDisplay:10.37,2013-01-13 14:48:00,
2013-01-13 08:53:00,14.2,10.8,30.00,West,270,3.9,6.9,86,0.00,OVC,,0.00,WeatherDisplay:10.37,2013-01-13 14:53:00,
2013-01-13 08:58:00,14.2,10.8,30.01,WNW,298,3.3,6.9,86,0.00,OVC,,0.00,WeatherDisplay:10.37,2013-01-13 14:58:00,
2013-01-13 09:03:00,14.1,10.7,30.01,NNE,20,4.8,9.2,86,0.00,-SN,,0.00,WeatherDisplay:10.37,2013-01-13 15:03:00,
2013-01-13 09:08:00,14.0,10.6,30.01,WSW,248,4.6,8.1,86,0.00,-SN,,0.00,WeatherDisplay:10.37,2013-01-13 15:08:00,
2013-01-13 09:13:00,13.7,10.0,30.01,SW,229,4.8,11.5,85,0.00,-SN,,0.00,WeatherDisplay:10.37,2013-01-13 15:13:00,
2013-01-13 09:18:00,14.0,10.6,30.01,NW,313,4.0,8.1,86,0.00,-SN,,0.00,WeatherDisplay:10.37,2013-01-13 15:18:00,
2013-01-13 09:23:00,14.0,10.3,30.01,WNW,302,5.1,9.2,85,0.00,-SN,,0.00,WeatherDisplay:10.37,2013-01-13 15:23:00,
2013-01-13 09:28:00,14.2,10.8,30.01,NW,316,4.2,5.8,86,0.00,-SN,,0.00,WeatherDisplay:10.37,2013-01-13 15:28:00,
2013-01-13 09:33:00,14.0,10.6,30.00,WNW,285,2.7,5.8,86,0.00,-SN,,0.00,WeatherDisplay:10.37,2013-01-13 15:33:00,
2013-01-13 09:38:00,14.0,10.6,30.00,NW,304,4.0,6.9,86,0.00,-SN,,0.00,WeatherDisplay:10.37,2013-01-13 15:38:00,
2013-01-13 09:43:00,13.5,9.8,30.00,WNW,282,7.3,10.4,85,0.00,-SN,,0.00,WeatherDisplay:10.37,2013-01-13 15:43:00,
2013-01-13 09:48:00,13.9,10.2,30.00,NW,318,4.7,9.2,85,0.00,-SN,,0.00,WeatherDisplay:10.37,2013-01-13 15:48:00,
2013-01-13 09:53:00,14.3,10.9,30.00,North,350,1.2,6.9,86,0.00,-SN,,0.00,WeatherDisplay:10.37,2013-01-13 15:53:00,
2013-01-13 09:58:00,14.0,9.8,29.99,West,281,7.5,9.2,83,0.00,-SN,,0.00,WeatherDisplay:10.37,2013-01-13 15:58:00,
2013-01-13 10:03:00,14.0,10.1,29.99,NW,305,4.6,10.4,84,0.00,-SN,,0.00,WeatherDisplay:10.37,2013-01-13 16:03:00,
2013-01-13 10:08:00,13.9,10.0,29.99,WNW,299,7.6,12.1,84,0.00,-SN,,0.00,WeatherDisplay:10.37,2013-01-13 16:08:00,
2013-01-13 10:13:00,13.8,9.6,29.98,West,271,5.6,15.0,83,0.00,-SN,,0.00,WeatherDisplay:10.37,2013-01-13 16:13:00,
2013-01-13 10:18:00,13.6,9.7,29.97,West,278,6.4,10.4,84,0.00,-SN,,0.00,WeatherDisplay:10.37,2013-01-13 16:18:00,
2013-01-13 10:23:00,14.1,10.4,29.97,WSW,237,3.4,6.9,85,0.00,-SN,,0.00,WeatherDisplay:10.37,2013-01-13 16:23:00,
2013-01-13 10:28:00,13.8,9.6,29.97,WNW,288,6.5,12.7,83,0.00,-SN,,0.00,WeatherDisplay:10.37,2013-01-13 16:28:00,
2013-01-13 10:33:00,13.9,10.2,29.97,WNW,282,6.8,10.1,85,0.00,-SN,,0.00,WeatherDisplay:10.37,2013-01-13 16:33:00,
2013-01-13 10:38:00,13.5,9.8,29.97,WNW,294,6.4,13.8,85,0.00,-SN,,0.00,WeatherDisplay:10.37,2013-01-13 16:38:00,
2013-01-13 10:43:00,13.5,9.6,29.97,WNW,296,9.0,10.4,84,0.00,-SN,,0.00,WeatherDisplay:10.37,2013-01-13 16:43:00,
2013-01-13 10:48:00,13.5,9.8,29.97,WNW,292,7.8,11.5,85,0.00,-SN,,0.00,WeatherDisplay:10.37,2013-01-13 16:48:00,
2013-01-13 10:53:00,13.2,9.3,29.97,NW,306,9.4,13.8,84,0.00,-SN,,0.00,WeatherDisplay:10.37,2013-01-13 16:53:00,
2013-01-13 10:58:00,14.5,10.8,29.97,WSW,257,4.8,8.6,85,0.00,-SN,,0.00,WeatherDisplay:10.37,2013-01-13 16:58:00,
2013-01-13 11:03:00,14.1,9.6,29.98,WNW,291,7.1,12.7,82,0.00,OVC,,0.00,WeatherDisplay:10.37,2013-01-13 17:03:00,
2013-01-13 11:08:00,14.4,10.2,29.97,WSW,254,4.1,8.1,83,0.00,OVC,,0.00,WeatherDisplay:10.37,2013-01-13 17:08:00,
2013-01-13 11:13:00,14.3,9.8,29.97,West,265,6.7,8.1,82,0.00,OVC,,0.00,WeatherDisplay:10.37,2013-01-13 17:13:00,
2013-01-13 11:18:00,14.3,9.8,29.98,WSW,243,4.3,8.1,82,0.00,OVC,,0.00,WeatherDisplay:10.37,2013-01-13 17:18:00,
2013-01-13 11:23:00,15.2,10.7,29.99,WNW,302,2.4,4.8,82,0.00,OVC,,0.00,WeatherDisplay:10.37,2013-01-13 17:23:00,
2013-01-13 11:28:00,15.3,10.0,29.99,West,264,4.4,9.1,79,0.00,OVC,,0.00,WeatherDisplay:10.37,2013-01-13 17:28:00,
2013-01-13 11:33:00,15.5,10.7,29.97,West,274,7.5,8.1,81,0.00,OVC,,0.00,WeatherDisplay:10.37,2013-01-13 17:33:00,
2013-01-13 11:38:00,15.4,9.5,29.97,WSW,257,5.7,8.0,77,0.00,OVC,,0.00,WeatherDisplay:10.37,2013-01-13 17:38:00,
2013-01-13 11:43:00,15.0,9.1,29.97,NW,304,7.5,11.5,77,0.00,OVC,,0.00,WeatherDisplay:10.37,2013-01-13 17:43:00,
2013-01-13 11:48:00,15.4,9.8,29.98,WNW,292,2.8,6.9,78,0.00,OVC,,0.00,WeatherDisplay:10.37,2013-01-13 17:48:00,
2013-01-13 11:53:00,15.4,9.5,29.97,SSE,155,1.2,10.4,77,0.00,OVC,,0.00,WeatherDisplay:10.37,2013-01-13 17:53:00,
2013-01-13 11:58:00,15.4,8.9,29.97,West,272,5.3,6.9,75,0.00,OVC,,0.00,WeatherDisplay:10.37,2013-01-13 17:58:00,
2013-01-13 12:03:00,15.9,10.0,29.97,West,267,5.5,10.7,77,0.00,OVC,,0.00,WeatherDisplay:10.37,2013-01-13 18:03:00,
2013-01-13 12:08:00,15.8,9.0,29.96,SW,232,5.5,10.4,74,0.00,OVC,,0.00,WeatherDisplay:10.37,2013-01-13 18:08:00,
2013-01-13 12:13:00,15.9,9.1,29.97,WNW,302,6.2,6.2,74,0.00,OVC,,0.00,WeatherDisplay:10.37,2013-01-13 18:13:00,
2013-01-13 12:18:00,16.1,9.0,29.98,WSW,257,5.3,10.4,73,0.00,OVC,,0.00,WeatherDisplay:10.37,2013-01-13 18:18:00,
2013-01-13 12:23:00,15.9,8.8,29.97,WNW,285,3.0,10.4,73,0.00,OVC,,0.00,WeatherDisplay:10.37,2013-01-13 18:23:00,
2013-01-13 12:28:00,16.1,9.0,29.97,WSW,246,6.3,9.2,73,0.00,OVC,,0.00,WeatherDisplay:10.37,2013-01-13 18:28:00,
2013-01-13 12:33:00,16.5,9.4,29.97,WSW,251,5.4,11.5,73,0.00,OVC,,0.00,WeatherDisplay:10.37,2013-01-13 18:33:00,
2013-01-13 12:38:00,17.0,9.8,29.97,ENE,76,2.6,5.8,73,0.00,OVC,,0.00,WeatherDisplay:10.37,2013-01-13 18:38:00,
2013-01-13 12:43:00,17.3,9.5,29.97,WSW,237,6.2,8.1,71,0.00,OVC,,0.00,WeatherDisplay:10.37,2013-01-13 18:43:00,
2013-01-13 12:48:00,17.5,9.7,29.97,WNW,287,6.3,9.2,71,0.00,OVC,,0.00,WeatherDisplay:10.37,2013-01-13 18:48:00,
2013-01-13 12:53:00,17.3,9.2,29.97,NW,326,5.0,9.2,70,0.00,OVC,,0.00,WeatherDisplay:10.37,2013-01-13 18:53:00,
2013-01-13 12:58:00,17.1,9.0,29.97,WNW,294,6.4,11.5,70,0.00,OVC,,0.00,WeatherDisplay:10.37,2013-01-13 18:58:00,
2013-01-13 13:03:00,17.5,11.2,29.97,South,182,6.6,9.2,76,0.00,BKN,,0.00,WeatherDisplay:10.37,2013-01-13 19:03:00,
2013-01-13 13:08:00,17.3,9.5,29.97,West,264,5.4,7.2,71,0.00,BKN,,0.00,WeatherDisplay:10.37,2013-01-13 19:08:00,
2013-01-13 13:13:00,17.6,9.8,29.96,WNW,287,4.5,8.1,71,0.00,BKN,,0.00,WeatherDisplay:10.37,2013-01-13 19:13:00,
2013-01-13 13:18:00,17.6,10.1,29.95,West,280,2.6,6.9,72,0.00,BKN,,0.00,WeatherDisplay:10.37,2013-01-13 19:18:00,
2013-01-13 13:23:00,18.0,10.5,29.94,WSW,258,5.9,10.4,72,0.00,BKN,,0.00,WeatherDisplay:10.37,2013-01-13 19:23:00,
2013-01-13 13:28:00,18.2,10.1,29.95,West,260,6.0,12.7,70,0.00,BKN,,0.00,WeatherDisplay:10.37,2013-01-13 19:28:00,
2013-01-13 13:33:00,17.5,9.1,29.95,SSW,200,3.5,10.4,69,0.00,BKN,,0.00,WeatherDisplay:10.37,2013-01-13 19:33:00,
2013-01-13 13:38:00,17.9,10.1,29.95,West,274,8.7,10.4,71,0.00,BKN,,0.00,WeatherDisplay:10.37,2013-01-13 19:38:00,
2013-01-13 13:43:00,17.3,9.2,29.95,WNW,298,7.6,9.2,70,0.00,BKN,,0.00,WeatherDisplay:10.37,2013-01-13 19:43:00,
2013-01-13 13:48:00,17.8,9.7,29.94,WSW,258,5.8,10.4,70,0.00,BKN,,0.00,WeatherDisplay:10.37,2013-01-13 19:48:00,
2013-01-13 13:53:00,17.5,9.1,29.95,South,175,4.7,10.4,69,0.00,BKN,,0.00,WeatherDisplay:10.37,2013-01-13 19:53:00,
2013-01-13 13:58:00,18.1,10.9,29.95,West,275,3.7,11.5,73,0.00,BKN,,0.00,WeatherDisplay:10.37,2013-01-13 19:58:00,
2013-01-13 14:03:00,18.4,10.6,29.96,WSW,258,2.0,5.8,71,0.00,SCT,,0.00,WeatherDisplay:10.37,2013-01-13 20:03:00,
2013-01-13 14:08:00,17.2,8.8,29.96,West,261,5.3,9.2,69,0.00,SCT,,0.00,WeatherDisplay:10.37,2013-01-13 20:08:00,
2013-01-13 14:13:00,18.3,11.4,29.97,WNW,292,5.7,12.2,74,0.00,SCT,,0.00,WeatherDisplay:10.37,2013-01-13 20:13:00,
2013-01-13 14:18:00,17.3,8.9,29.97,WSW,247,7.9,13.0,69,0.00,SCT,,0.00,WeatherDisplay:10.37,2013-01-13 20:18:00,
2013-01-13 14:23:00,16.8,8.4,29.97,WNW,302,7.5,11.5,69,0.00,SCT,,0.00,WeatherDisplay:10.37,2013-01-13 20:23:00,
2013-01-13 14:28:00,16.8,8.7,29.96,NW,309,5.0,11.5,70,0.00,SCT,,0.00,WeatherDisplay:10.37,2013-01-13 20:28:00,
2013-01-13 14:33:00,16.9,8.8,29.96,West,274,5.3,9.2,70,0.00,SCT,,0.00,WeatherDisplay:10.37,2013-01-13 20:33:00,
2013-01-13 14:38:00,17.1,9.0,29.97,NNW,337,4.0,6.8,70,0.00,SCT,,0.00,WeatherDisplay:10.37,2013-01-13 20:38:00,
2013-01-13 14:43:00,16.9,8.5,29.97,West,272,6.8,10.4,69,0.00,SCT,,0.00,WeatherDisplay:10.37,2013-01-13 20:43:00,
2013-01-13 14:48:00,16.8,8.4,29.98,NNW,347,7.8,10.4,69,0.00,SCT,,0.00,WeatherDisplay:10.37,2013-01-13 20:48:00,
2013-01-13 14:53:00,16.7,8.3,29.98,WNW,301,8.0,8.0,69,0.00,SCT,,0.00,WeatherDisplay:10.37,2013-01-13 20:53:00,
2013-01-13 14:58:00,15.8,7.7,29.99,WNW,295,7.6,9.9,70,0.00,SCT,,0.00,WeatherDisplay:10.37,2013-01-13 20:58:00,
2013-01-13 15:03:00,15.6,7.9,29.99,NW,316,4.4,9.2,71,0.00,BKN,,0.00,WeatherDisplay:10.37,2013-01-13 21:03:00,
2013-01-13 15:08:00,15.6,8.2,30.00,West,261,2.5,6.9,72,0.00,BKN,,0.00,WeatherDisplay:10.37,2013-01-13 21:08:00,
2013-01-13 15:13:00,15.6,7.9,30.00,West,274,6.4,6.5,71,0.00,BKN,,0.00,WeatherDisplay:10.37,2013-01-13 21:13:00,
2013-01-13 15:18:00,15.2,7.5,30.00,NNW,329,8.4,10.4,71,0.00,BKN,,0.00,WeatherDisplay:10.37,2013-01-13 21:18:00,
2013-01-13 15:23:00,15.3,7.9,30.00,WSW,258,6.4,8.1,72,0.00,BKN,,0.00,WeatherDisplay:10.37,2013-01-13 21:23:00,
2013-01-13 15:28:00,15.2,7.8,30.00,WNW,298,5.3,11.5,72,0.00,BKN,,0.00,WeatherDisplay:10.37,2013-01-13 21:28:00,
2013-01-13 15:33:00,15.2,9.0,30.00,WNW,284,5.6,7.6,76,0.00,BKN,,0.00,WeatherDisplay:10.37,2013-01-13 21:33:00,
2013-01-13 15:38:00,14.9,7.8,30.00,West,265,8.0,8.7,73,0.00,BKN,,0.00,WeatherDisplay:10.37,2013-01-13 21:38:00,
2013-01-13 15:43:00,15.2,8.4,30.00,NW,319,4.5,9.2,74,0.00,BKN,,0.00,WeatherDisplay:10.37,2013-01-13 21:43:00,
2013-01-13 15:48:00,15.0,7.9,30.00,WNW,299,6.9,9.2,73,0.00,BKN,,0.00,WeatherDisplay:10.37,2013-01-13 21:48:00,
2013-01-13 15:53:00,14.9,8.1,30.00,West,260,5.5,12.7,74,0.00,BKN,,0.00,WeatherDisplay:10.37,2013-01-13 21:53:00,
2013-01-13 15:58:00,14.8,8.0,30.00,West,274,4.3,7.6,74,0.00,BKN,,0.00,WeatherDisplay:10.37,2013-01-13 21:58:00,
2013-01-13 16:03:00,14.8,8.3,30.00,West,270,5.9,10.4,75,0.00,BKN,,0.00,WeatherDisplay:10.37,2013-01-13 22:03:00,
2013-01-13 16:08:00,14.6,8.4,30.00,NW,308,5.1,9.3,76,0.00,BKN,,0.00,WeatherDisplay:10.37,2013-01-13 22:08:00,
2013-01-13 16:13:00,14.5,8.3,30.00,West,270,6.5,10.4,76,0.00,BKN,,0.00,WeatherDisplay:10.37,2013-01-13 22:13:00,
2013-01-13 16:18:00,14.6,8.4,30.01,South,176,5.4,5.8,76,0.00,BKN,,0.00,WeatherDisplay:10.37,2013-01-13 22:18:00,
2013-01-13 16:23:00,14.3,7.8,30.01,West,268,8.9,11.7,75,0.00,BKN,,0.00,WeatherDisplay:10.37,2013-01-13 22:23:00,
2013-01-13 16:28:00,14.2,8.0,30.02,West,260,6.4,12.7,76,0.00,BKN,,0.00,WeatherDisplay:10.37,2013-01-13 22:28:00,
2013-01-13 16:33:00,14.2,8.3,30.02,West,274,3.0,6.9,77,0.00,BKN,,0.00,WeatherDisplay:10.37,2013-01-13 22:33:00,
2013-01-13 16:38:00,14.1,8.2,30.02,West,270,4.2,9.2,77,0.00,BKN,,0.00,WeatherDisplay:10.37,2013-01-13 22:38:00,
2013-01-13 16:43:00,14.5,8.3,30.02,WSW,253,5.9,10.4,76,0.00,BKN,,0.00,WeatherDisplay:10.37,2013-01-13 22:43:00,
2013-01-13 16:49:00,14.2,8.0,30.03,SW,217,7.4,7.4,76,0.00,BKN,,0.00,WeatherDisplay:10.37,2013-01-13 22:49:00,
2013-01-13 16:54:00,14.0,6.9,30.03,WSW,244,8.6,13.8,73,0.00,BKN,,0.00,WeatherDisplay:10.37,2013-01-13 22:54:00,
2013-01-13 16:59:00,13.6,6.8,30.03,NW,308,7.7,12.7,74,0.00,BKN,,0.00,WeatherDisplay:10.37,2013-01-13 22:59:00,
2013-01-13 17:04:00,13.5,6.8,30.03,West,275,3.3,8.1,74,0.00,BKN,,0.00,WeatherDisplay:10.37,2013-01-13 23:04:00,
2013-01-13 17:09:00,13.6,7.1,30.04,SW,222,4.6,6.9,75,0.00,BKN,,0.00,WeatherDisplay:10.37,2013-01-13 23:09:00,
2013-01-13 17:14:00,13.5,7.0,30.04,WNW,287,4.4,4.6,75,0.00,BKN,,0.00,WeatherDisplay:10.37,2013-01-13 23:14:00,
2013-01-13 17:19:00,13.5,7.0,30.04,North,350,6.0,10.4,75,0.00,BKN,,0.00,WeatherDisplay:10.37,2013-01-13 23:19:00,
2013-01-13 17:24:00,13.6,7.4,30.04,WSW,246,5.4,6.9,76,0.00,BKN,,0.00,WeatherDisplay:10.37,2013-01-13 23:24:00,
2013-01-13 17:29:00,13.8,7.0,30.05,West,268,6.0,6.9,74,0.00,BKN,,0.00,WeatherDisplay:10.37,2013-01-13 23:29:00,
2013-01-13 17:34:00,13.2,6.5,30.05,WNW,288,9.2,9.2,74,0.00,BKN,,0.00,WeatherDisplay:10.37,2013-01-13 23:34:00,
2013-01-13 17:39:00,13.5,7.3,30.05,South,169,1.9,8.1,76,0.00,BKN,,0.00,WeatherDisplay:10.37,2013-01-13 23:39:00,
2013-01-13 17:44:00,13.6,7.1,30.06,WNW,289,6.2,12.7,75,0.00,BKN,,0.00,WeatherDisplay:10.37,2013-01-13 23:44:00,
2013-01-13 17:49:00,13.7,7.2,30.06,SW,236,7.1,7.1,75,0.00,BKN,,0.00,WeatherDisplay:10.37,2013-01-13 23:49:00,
2013-01-13 17:54:00,13.4,7.2,30.06,WSW,240,5.4,9.4,76,0.00,BKN,,0.00,WeatherDisplay:10.37,2013-01-13 23:54:00,
2013-01-13 17:59:00,13.1,7.0,30.07,WNW,294,5.9,9.2,76,0.00,BKN,,0.00,WeatherDisplay:10.37,2013-01-13 23:59:00,
2013-01-13 18:04:00,12.4,6.3,30.08,WSW,237,7.5,13.8,76,0.00,OVC,,0.00,WeatherDisplay:10.37,2013-01-14 00:04:00,
2013-01-13 18:09:00,13.0,7.4,30.08,WSW,246,4.5,11.5,78,0.00,OVC,,0.00,WeatherDisplay:10.37,2013-01-14 00:09:00,
2013-01-13 18:14:00,12.6,6.5,30.08,West,264,6.4,6.9,76,0.00,OVC,,0.00,WeatherDisplay:10.37,2013-01-14 00:14:00,
2013-01-13 18:19:00,12.6,7.0,30.08,West,281,4.8,11.5,78,0.00,OVC,,0.00,WeatherDisplay:10.37,2013-01-14 00:19:00,
2013-01-13 18:24:00,12.5,7.2,30.08,WNW,288,4.4,6.9,79,0.00,OVC,,0.00,WeatherDisplay:10.37,2013-01-14 00:24:00,
2013-01-13 18:29:00,12.0,6.5,30.08,West,261,2.6,9.2,78,0.00,OVC,,0.00,WeatherDisplay:10.37,2013-01-14 00:29:00,
2013-01-13 18:34:00,12.2,6.7,30.09,WSW,237,3.2,9.2,78,0.00,OVC,,0.00,WeatherDisplay:10.37,2013-01-14 00:34:00,
2013-01-13 18:39:00,11.5,6.0,30.09,WNW,289,7.2,12.7,78,0.00,OVC,,0.00,WeatherDisplay:10.37,2013-01-14 00:39:00,
2013-01-13 18:44:00,11.5,6.2,30.09,West,264,7.6,12.7,79,0.00,OVC,,0.00,WeatherDisplay:10.37,2013-01-14 00:44:00,
2013-01-13 18:49:00,11.5,6.5,30.09,WNW,292,3.8,10.4,80,0.00,OVC,,0.00,WeatherDisplay:10.37,2013-01-14 00:49:00,
2013-01-13 18:54:00,11.4,6.2,30.08,WNW,292,5.0,13.8,79,0.00,OVC,,0.00,WeatherDisplay:10.37,2013-01-14 00:54:00,
2013-01-13 18:59:00,11.2,6.0,30.08,West,280,8.0,9.2,79,0.00,OVC,,0.00,WeatherDisplay:10.37,2013-01-14 00:59:00,
2013-01-13 19:04:00,11.4,6.2,30.09,West,260,5.2,8.1,79,0.00,OVC,,0.00,WeatherDisplay:10.37,2013-01-14 01:04:00,
2013-01-13 19:09:00,11.2,5.7,30.09,West,280,5.3,7.5,78,0.00,OVC,,0.00,WeatherDisplay:10.37,2013-01-14 01:09:00,
2013-01-13 19:14:00,11.5,6.2,30.09,WSW,257,5.5,10.3,79,0.00,OVC,,0.00,WeatherDisplay:10.37,2013-01-14 01:14:00,
2013-01-13 19:19:00,11.5,6.0,30.09,West,277,5.4,8.2,78,0.00,OVC,,0.00,WeatherDisplay:10.37,2013-01-14 01:19:00,
2013-01-13 19:24:00,11.5,6.0,30.10,West,274,3.6,8.1,78,0.00,OVC,,0.00,WeatherDisplay:10.37,2013-01-14 01:24:00,
2013-01-13 19:29:00,11.3,5.5,30.09,West,271,6.9,17.3,77,0.00,OVC,,0.00,WeatherDisplay:10.37,2013-01-14 01:29:00,
2013-01-13 19:34:00,11.2,5.7,30.09,WNW,299,4.9,13.8,78,0.00,OVC,,0.00,WeatherDisplay:10.37,2013-01-14 01:34:00,
2013-01-13 19:39:00,11.2,5.7,30.09,West,275,4.9,6.9,78,0.00,OVC,,0.00,WeatherDisplay:10.37,2013-01-14 01:39:00,
2013-01-13 19:44:00,11.5,6.0,30.10,NW,304,5.4,11.5,78,0.00,OVC,,0.00,WeatherDisplay:10.37,2013-01-14 01:44:00,
2013-01-13 19:49:00,11.5,6.5,30.10,WNW,292,5.0,6.5,80,0.00,OVC,,0.00,WeatherDisplay:10.37,2013-01-14 01:49:00,
2013-01-13 19:54:00,11.8,6.5,30.10,SW,227,5.7,9.2,79,0.00,OVC,,0.00,WeatherDisplay:10.37,2013-01-14 01:54:00,
2013-01-13 19:59:00,11.5,6.0,30.10,West,265,7.1,8.5,78,0.00,OVC,,0.00,WeatherDisplay:10.37,2013-01-14 01:59:00,
2013-01-13 20:04:00,11.9,6.6,30.10,NW,306,5.0,6.9,79,0.00,-SN,,0.00,WeatherDisplay:10.37,2013-01-14 02:04:00,
2013-01-13 20:09:00,11.5,6.2,30.10,WNW,294,8.1,8.6,79,0.00,-SN,,0.00,WeatherDisplay:10.37,2013-01-14 02:09:00,
2013-01-13 20:14:00,11.7,6.7,30.11,NW,322,3.9,12.7,80,0.00,-SN,,0.00,WeatherDisplay:10.37,2013-01-14 02:14:00,
2013-01-13 20:19:00,11.9,7.2,30.11,WSW,239,2.6,9.2,81,0.00,-SN,,0.00,WeatherDisplay:10.37,2013-01-14 02:19:00,
2013-01-13 20:24:00,11.8,7.1,30.11,WNW,288,7.5,9.9,81,0.00,-SN,,0.00,WeatherDisplay:10.37,2013-01-14 02:24:00,
2013-01-13 20:29:00,12.0,7.0,30.11,WNW,301,3.9,10.4,80,0.00,-SN,,0.00,WeatherDisplay:10.37,2013-01-14 02:29:00,
2013-01-13 20:34:00,11.8,6.8,30.11,WNW,292,7.3,9.2,80,0.00,-SN,,0.00,WeatherDisplay:10.37,2013-01-14 02:34:00,
2013-01-13 20:39:00,11.9,7.5,30.11,NW,320,5.7,10.4,82,0.00,-SN,,0.00,WeatherDisplay:10.37,2013-01-14 02:39:00,
2013-01-13 20:44:00,12.2,7.8,30.12,NNW,333,3.8,6.9,82,0.00,-SN,,0.00,WeatherDisplay:10.37,2013-01-14 02:44:00,
2013-01-13 20:49:00,12.0,7.3,30.11,WNW,291,3.6,8.1,81,0.00,-SN,,0.00,WeatherDisplay:10.37,2013-01-14 02:49:00,
2013-01-13 20:54:00,12.1,7.4,30.11,West,272,4.3,8.1,81,0.00,-SN,,0.00,WeatherDisplay:10.37,2013-01-14 02:54:00,
2013-01-13 20:59:00,11.8,7.1,30.11,West,272,5.2,5.9,81,0.00,-SN,,0.00,WeatherDisplay:10.37,2013-01-14 02:59:00,
2013-01-13 21:04:00,11.8,7.1,30.12,WSW,237,4.6,10.4,81,0.00,-SN,,0.00,WeatherDisplay:10.37,2013-01-14 03:04:00,
2013-01-13 21:09:00,11.7,7.3,30.12,WNW,296,4.0,4.6,82,0.00,-SN,,0.00,WeatherDisplay:10.37,2013-01-14 03:09:00,
2013-01-13 21:14:00,11.5,7.1,30.12,WSW,254,6.7,9.2,82,0.00,-SN,,0.00,WeatherDisplay:10.37,2013-01-14 03:14:00,
2013-01-13 21:19:00,11.4,7.0,30.12,SSW,195,3.5,11.5,82,0.00,-SN,,0.00,WeatherDisplay:10.37,2013-01-14 03:19:00,
2013-01-13 21:24:00,11.9,7.7,30.13,WSW,250,5.8,9.2,83,0.00,-SN,,0.00,WeatherDisplay:10.37,2013-01-14 03:24:00,
2013-01-13 21:29:00,12.1,8.2,30.12,West,263,4.9,11.5,84,0.00,-SN,,0.00,WeatherDisplay:10.37,2013-01-14 03:29:00,
2013-01-13 21:34:00,11.9,7.5,30.13,West,281,5.1,9.2,82,0.00,-SN,,0.00,WeatherDisplay:10.37,2013-01-14 03:34:00,
2013-01-13 21:39:00,11.5,7.1,30.14,West,275,4.8,8.1,82,0.00,-SN,,0.00,WeatherDisplay:10.37,2013-01-14 03:39:00,
2013-01-13 21:44:00,11.7,7.0,30.13,WSW,237,6.3,9.2,81,0.00,-SN,,0.00,WeatherDisplay:10.37,2013-01-14 03:44:00,
2013-01-13 21:49:00,11.4,6.4,30.14,WNW,292,5.4,5.8,80,0.00,-SN,,0.00,WeatherDisplay:10.37,2013-01-14 03:49:00,
2013-01-13 21:54:00,11.8,7.1,30.14,WSW,258,4.5,8.9,81,0.00,-SN,,0.00,WeatherDisplay:10.37,2013-01-14 03:54:00,
2013-01-13 21:59:00,12.0,7.6,30.14,West,272,5.3,8.4,82,0.00,-SN,,0.00,WeatherDisplay:10.37,2013-01-14 03:59:00,
2013-01-13 22:04:00,11.8,6.5,30.14,SW,220,6.5,10.4,79,0.00,-SN,,0.00,WeatherDisplay:10.37,2013-01-14 04:04:00,
2013-01-13 22:09:00,11.8,6.8,30.14,West,275,5.4,5.4,80,0.00,-SN,,0.00,WeatherDisplay:10.37,2013-01-14 04:09:00,
2013-01-13 22:14:00,11.7,6.4,30.14,WSW,256,5.9,11.5,79,0.00,-SN,,0.00,WeatherDisplay:10.37,2013-01-14 04:14:00,
2013-01-13 22:19:00,11.4,6.2,30.14,West,270,8.9,16.1,79,0.00,-SN,,0.00,WeatherDisplay:10.37,2013-01-14 04:19:00,
2013-01-13 22:24:00,11.6,6.6,30.14,WNW,287,5.2,9.2,80,0.00,-SN,,0.00,WeatherDisplay:10.37,2013-01-14 04:24:00,
2013-01-13 22:29:00,11.2,6.2,30.14,West,274,6.1,11.6,80,0.00,-SN,,0.00,WeatherDisplay:10.37,2013-01-14 04:29:00,
2013-01-13 22:34:00,11.2,6.2,30.14,West,267,7.8,11.5,80,0.00,-SN,,0.00,WeatherDisplay:10.37,2013-01-14 04:34:00,
2013-01-13 22:39:00,11.2,6.5,30.14,WSW,243,6.0,9.2,81,0.00,-SN,,0.00,WeatherDisplay:10.37,2013-01-14 04:39:00,
2013-01-13 22:44:00,11.2,6.8,30.14,West,261,6.1,6.9,82,0.00,-SN,,0.00,WeatherDisplay:10.37,2013-01-14 04:44:00,
2013-01-13 22:49:00,11.1,6.7,30.14,West,274,7.5,7.5,82,0.00,-SN,,0.00,WeatherDisplay:10.37,2013-01-14 04:49:00,
2013-01-13 22:54:00,11.0,6.6,30.15,WNW,291,5.9,12.7,82,0.00,-SN,,0.00,WeatherDisplay:10.37,2013-01-14 04:54:00,
2013-01-13 22:59:00,11.2,7.0,30.15,West,268,6.7,11.5,83,0.00,-SN,,0.00,WeatherDisplay:10.37,2013-01-14 04:59:00,
2013-01-13 23:01:00,11.1,6.7,30.15,NW,306,6.7,10.4,82,0.00,-SN,,0.00,WeatherDisplay:10.37,2013-01-14 05:01:00,
2013-01-13 23:03:00,11.2,7.0,30.15,SW,222,5.0,8.1,83,0.00,-SN,,0.00,WeatherDisplay:10.37,2013-01-14 05:03:00,
2013-01-13 23:08:00,10.7,6.3,30.14,WNW,282,7.6,12.7,82,0.00,-SN,,0.00,WeatherDisplay:10.37,2013-01-14 05:08:00,
2013-01-13 23:13:00,10.6,6.2,30.15,NNW,333,6.2,12.7,82,0.00,-SN,,0.00,WeatherDisplay:10.37,2013-01-14 05:13:00,
2013-01-13 23:18:00,10.8,6.4,30.15,West,275,4.7,6.9,82,0.00,-SN,,0.00,WeatherDisplay:10.37,2013-01-14 05:18:00,
2013-01-13 23:23:00,10.7,6.6,30.15,WSW,258,4.1,10.4,83,0.00,-SN,,0.00,WeatherDisplay:10.37,2013-01-14 05:23:00,
2013-01-13 23:28:00,10.6,6.5,30.15,West,275,9.0,11.5,83,0.00,-SN,,0.00,WeatherDisplay:10.37,2013-01-14 05:28:00,
2013-01-13 23:33:00,10.6,6.5,30.15,WNW,284,5.0,9.2,83,0.00,-SN,,0.00,WeatherDisplay:10.37,2013-01-14 05:33:00,
2013-01-13 23:38:00,10.4,6.5,30.15,WNW,287,6.0,9.2,84,0.00,-SN,,0.00,WeatherDisplay:10.37,2013-01-14 05:38:00,
2013-01-13 23:43:00,10.3,6.4,30.16,WSW,258,8.8,12.7,84,0.00,-SN,,0.00,WeatherDisplay:10.37,2013-01-14 05:43:00,
2013-01-13 23:48:00,10.3,6.4,30.16,WNW,284,3.7,11.5,84,0.00,-SN,,0.00,WeatherDisplay:10.37,2013-01-14 05:48:00,
2013-01-13 23:53:00,10.1,6.2,30.16,WSW,257,8.1,11.5,84,0.00,-SN,,0.00,WeatherDisplay:10.37,2013-01-14 05:53:00,
2013-01-13 23:58:00,10.2,6.3,30.16,West,278,4.7,10.4,84,0.00,-SN,,0.00,WeatherDisplay:10.37,2013-01-14 05:58:00,